1st Responders/1st Detectors/Storm Spotters Weather Summary for Carroll County, KY

Forecast Maps


Reg. NEXRAD Animation


National Fire Danger: Day 1 & 2 Map

Current NWS Watch/Warnings

SPC Convective Day 1 Outlook


Day 2 Outlook

(Click images to enlarge|Page will refresh every 5 minutes)
UK Ag. Weather Center Desktop Severe Weather Service[HERE]
Carroll County, KY Hazardous Weather Outlook Webcast
(9 AM to 9 PM Mon-Fri)
[Fast]
[Dial-up]


UKAWC 1st Detectors/1st Responders Precision Weather Forecast For CARROLL County, Kentucky
(based on the NWS County Digital Forecast)

ISSUED AT 10:00 UTC ON FRIDAY FEB 23 2018
DAY FRIDAY
EDT 3HR 7A 8A 9A 10A 11A NOON 1P 2P 3P 4P 5P 6P 7P
MAX/MIN -- 43° -- -- -- -- -- -- -- -- -- -- 63°
TEMP 49° 52° 56° 56° 58° 58° 58° 59° 63° 63° 63° 63° 61°
SKY COVER 100% 100% 100% 100% 100% 100% 100% 100% 100% 100% 100% 100% 97%
Clouds
DEW PT 49° 52° 54° 56° 58° 58° 58° 58° 58° 58° 56° 56° 54°
RH 99% 96% 96% 100% 100% 99% 99% 96% 83% 80% 77% 75% 77%
POP 12HR -- 100% -- -- -- -- -- -- -- -- -- -- --
RAIN/SNOW (liq.equ) -- 0.61in -- -- -- -- -- 0.44in -- -- -- -- --
SNOWFALL -- 0in -- -- -- -- -- 0in -- -- -- -- --
WIND SPEED(MPH) 6 7 8 9 9 9 9 9 8 7 7 6 5
WIND Gust(MPH) 7 7 9 13 13 13 13 13 9 7 7 6 5
WIND DIR S S S S SW SW SW SW W W W W W
DEW -- -- -- -- -- -- -- -- -- -- -- -- --
HeatIndex 49 52 56 56 58 58 58 59 63 63 63 63 61
Rain Showers Definite Definite Definite Definite Definite Definite Definite Definite Definite Likely Likely Likely Likely
Thunder Storm Chance Chance Chance Chance Chance Chance Chance Chance -- -- -- -- --
WIND CHILL -- -- -- -- -- -- -- -- -- -- -- -- --
SPRAY COND
DRY COND
LIVESTOCK COLDSTRESS



DAY SATURDAY SUNDAY MONDAY TUESDAY WEDNESDAY WED THU
EDT 6HR 8P 9P 10P 11P MIDN 1A 2A 3A 4A 5A 6A 7A 8A 9A 10A 11A NOON 1P 2P 3P 4P 5P 6P 8P 11P 2A 5A 8A 11A 2P 5P 8P 2A 8A 2P 8P 2A 8A 2P 8P 2A 8A 2P 8P 2A 8A 2P 8P
MAX/MIN -- -- -- -- -- -- -- -- -- -- -- -- 49° -- -- -- -- -- -- -- -- -- 67° -- -- -- -- 50° -- -- 54° -- -- 34° 54° -- -- 32° 59° -- -- 40° 58° -- -- 45° 56° --
TEMP 58° 58° 56° 54° 54° 54° 52° 52° 52° 50° 50° 49° 49° 49° 52° 54° 58° 61° 63° 65° 67° 67° 67° 61° 58° 56° 56° 54° 52° 52° 52° 47° 40° 34° 54° 45° 40° 34° 56° 49° 43° 41° 58° 52° 47° 45° 56° 52°
SKY COVER 97% 97% 96% 96% 96% 95% 95% 95% 96% 97% 98% 99% 100% 100% 100% 100% 100% 100% 100% 99% 99% 99% 99% 99% 95% 85% 76% 61% 48% 41% 37% 35% 32% 22% 13% 13% 12% 15% 16% 30% 46% 71% 76% 78% 90% 85% 75% 74%
Clouds
DEW PT 54° 54° 52° 52° 52° 52° 50° 50° 50° 50° 50° 49° 49° 49° 52° 52° 54° 54° 54° 56° 56° 56° 56° 56° 56° 54° 49° 45° 41° 38° 36° 34° 32° 31° 32° 34° 31° 29° 34° 36° 34° 38° 45° 45° 45° 43° 45° 43°
RH 83% 86% 86% 92% 89% 92% 92% 93% 95% 100% 99% 100% 99% 99% 96% 92% 83% 77% 72% 69% 68% 67% 68% 86% 89% 92% 79% 74% 68% 56% 53% 63% 76% 88% 42% 62% 70% 85% 41% 62% 72% 85% 61% 79% 89% 95% 69% 71%
POP 12HR 100% -- -- -- -- -- -- -- -- -- -- -- 84% -- -- -- -- -- -- -- -- -- -- 98% -- -- -- 96% -- -- -- 10% -- 3% -- 2% -- 1% -- 6% -- 29% -- 38% -- 41% -- 42%
RAIN/SNOW (liq.equ) 0.12in -- -- -- -- -- 0.06in -- -- -- -- -- 0.21in -- -- -- -- -- 0.33in -- -- -- -- 0.29in -- 0.74in -- 0.45in -- 0.00in -- 0.00in -- -- -- -- -- -- -- -- -- -- -- -- -- -- -- --
SNOWFALL 0in -- -- -- -- -- 0in -- -- -- -- -- 0in -- -- -- -- -- 0in -- -- -- -- 0in -- 0in -- 0in -- 0in -- 0in -- -- -- -- -- -- -- -- -- -- -- -- -- -- -- --
WIND SPEED(MPH) 5 2 2 1 1 1 1 1 2 2 2 5 5 5 6 6 6 7 7 7 7 7 7 7 10 13 15 14 14 14 8 5 1 1 5 0 0 0 5 2 2 2 6 5 5 5 7 7
WIND DIR W W W W NW N N N NE NE NE E E E E SE SE SE S S S S S S S S SW W W W W W NW SW W NW S E S SE SE SE S SE S S SW W
HeatIndex 58 58 56 54 54 54 52 52 52 50 50 49 49 49 52 54 58 61 63 65 67 67 67 61 58 56 56 54 52 52 52 47 40 34 54 45 40 34 56 49 41 40 58 52 47 42 56 52
Rain Showers Chance Chance Chance Chance Chance Chance Chance Chance Likely Likely Definite Definite Definite Definite Definite Definite Definite Definite Definite Definite Definite Definite Definite Definite Definite Definite Definite -- -- -- -- -- -- -- -- -- -- -- -- -- -- Chance Chance Chance Chance Chance Chance Chance
Thunder Storm -- -- -- -- -- -- -- -- -- -- -- -- -- -- -- Chance Chance Chance Chance Chance Chance Chance Chance Chance Chance Chance Chance -- -- -- -- -- -- -- -- -- -- -- -- -- -- -- -- -- -- -- -- --
WIND CHILL -- -- -- -- -- -- -- -- -- -- -- -- -- -- -- -- -- -- -- -- -- -- -- -- -- -- -- -- -- -- -- -- -- -- -- -- -- -- -- -- -- -- -- -- -- 43° -- --
SPRAY COND
DRY COND
LIVESTOCK COLDSTRESS

Click on individual weather variable above in left-hand column (ie., TEMP, RH, QPF 12HR) to view state forecast maps






NWS 48 Hr. Forecast Maps,

Regional Hourly Observations For CARROLL County, Kentucky
Issued at 500 AM EST FRI FEB 23 2018
NORTHEAST KENTUCKY
  
CITY           SKY/WX    TMP DP  RH WIND       PRES   REMARKS
LEXINGTON      FAIR      57  54  89 SE13G22   30.25F                  
COVINGTON      RAIN      47  47 100 E3        30.25F FOG              
FRANKFORT      FOG       52  49  89 E5        30.23F VSB 1/2          


Current NOWCAST not available:
Nowcasts are not issued routinely during fair weather. Only when
precipitation or other significant weather is occuring in this county will these
forecasts be issued. Currently, there is no short term forecast in effect.


Fire Weather Forecast For CARROLL County, KY
Provided by the National Weather Service:

Issued at: Fri Feb 23 05:05:02 EST 2018

CLOUD COVER                    Cloudy       Cloudy       Cloudy
PRECIP TYPE                     Tstms      Showers        Tstms
CHANCE PRECIP (%)                 100           80          100
TEMP (24H TREND)             64 (+18)      50 (+8)           68
RH % (24H TREND)              73 (-7)     100 (+1)           65
20FTWND-AM(MPH)                  S  8                   Lgt/Var
20FTWND-PM(MPH)                  W  6      Lgt/Var         S  5
PRECIP AMOUNT                    0.63         0.25         0.60
PRECIP DURATION                    11            5           12
MIXING HGT(FT-AGL)               3990                      4920
TRANSPORT WND (MPH)              W 28                     SW 31
LAL                                 3            1            3
HAINES INDEX                        3            2            2

REMARKS...None.

.FORECAST FOR DAYS 3 THROUGH 7...
.SATURDAY NIGHT...Showers and a chance of thunderstorms. Lows in the lower
50s. South winds around 10 mph. 
.SUNDAY...Mostly sunny. Highs in the mid 50s. West winds 10 to 15 mph. 
.MONDAY...Mostly clear. Lows in the mid 30s. Highs in the mid 50s. West
winds around 5 mph. 
.TUESDAY...Mostly clear. Lows in the lower 30s. Highs around 60. Southeast
winds around 5 mph. 
.WEDNESDAY...Mostly cloudy. A chance of showers. Lows in the lower 40s.
Highs in the upper 50s. South winds around 5 mph. 
.THURSDAY...Mostly cloudy with a chance of showers. Lows in the mid 40s.
Highs in the upper 50s. Southwest winds around 5 mph. 

SPC's Fire Weather Web Tool (Excellent!), SPC's Fire Weather Outlooks, NWS Fire Weather WEB, Fire Danger Class Map,
Keetch-Byram Drought Index, ROMAN Web, Haines Index ,
WFAS's 10-hr Dead Fuel Moist., WFAS's 100-hr Dead Fuel Moist., Probablity of Ignition, Visual blackness Map, Palmer Drought Index, HPC's Rainfall Forecast Maps


Hazardous Weather Outlook For CARROLL County, Kentucky
440 AM EST Fri Feb 23 2018

   FLOOD WATCH IN EFFECT THROUGH SUNDAY MORNING  

This Hazardous Weather Outlook is for East Central Indiana, 
Southeast Indiana, Northeast Kentucky, Northern Kentucky, Central 
Ohio, South Central Ohio, Southwest Ohio and West Central Ohio.

 DAY ONE  Today and Tonight.

Please listen to NOAA Weather Radio or go to weather.gov on the
Internet for more information about the following hazards.

   Flood Watch.

Ohio River and local tributary flooding will persist. Please check 
our web site at www.weather.gov/iln for more information on the
river flooding.

 DAYS TWO THROUGH SEVEN  Saturday through Thursday.

Please listen to NOAA Weather Radio or go to weather.gov on the
Internet for more information about the following hazards.

   Flood Watch.

 SPOTTER INFORMATION STATEMENT  

Spotters are encouraged to report significant rainfall amounts.

Latest CARROLL County, Kentucky Watches, Warnings and Advisories.
Additional Drought Info.: UKAWC Drought Page, Kentucky Drought Watch


7-Day Forecast For CARROLL County, KY


FLOOD WATCH IN EFFECT THROUGH SUNDAY MORNING

TODAY
Showers with a chance of thunderstorms. Much warmer with highs in the mid 60s. West winds 5 to 10 mph. Chance of rain 100 percent.

TONIGHT
Showers, mild. Lows in the lower 50s. West winds around 5 mph, becoming north after midnight. Chance of rain 80 percent.

SATURDAY
Showers with a chance of thunderstorms. Mild. Highs in the upper 60s. East winds around 5 mph, becoming south in the afternoon. Chance of rain 100 percent.

SATURDAY NIGHT
Showers with a chance of thunderstorms. Mild. Lows in the lower 50s. South winds 15 to 20 mph. Chance of rain 100 percent.

SUNDAY
Partly cloudy. A chance of showers in the morning. Not as warm with highs in the mid 50s. West winds 10 to 15 mph with gusts up to 35 mph. Chance of rain 30 percent.

SUNDAY NIGHT
Partly cloudy. Much colder with lows in the mid 30s.

MONDAY
Mostly sunny. Mild. Highs in the mid 50s.

MONDAY NIGHT
Mostly clear. Lows in the lower 30s.

TUESDAY
Mostly sunny. Mild. Highs around 60.

TUESDAY NIGHT
Partly cloudy. Mild. Lows in the lower 40s.

WEDNESDAY
Mostly cloudy with a 40 percent chance of showers. Mild. Highs in the upper 50s.

WEDNESDAY NIGHT
Mostly cloudy with a 40 percent chance of showers. Mild. Lows in the mid 40s.

THURSDAY
Mostly cloudy with a 40 percent chance of showers. Mild. Highs in the upper 50s.

Ag Weather Center, Department of Biosystems & Agricultural Engineering, University of Kentucky